This is the latest recevied weather packets stored in our database for station/object IT9CNT. If no packets are shown the sender has not sent any weather packets the latest 1 day(s).
| Time | Temp. | Humidity | Pressure | Rain* | Wind** | Luminosity | Snow |
|---|---|---|---|---|---|---|---|
| 1777995243 | 18.33° C | 81% | 1013 hPa | 0 mm | 2.68 m/s, 158° | - | - |
| 1777995183 | 18.33° C | 80% | 1013.1 hPa | 0 mm | 2.24 m/s, 156° | - | - |
| 1777995123 | 18.33° C | 81% | 1013.1 hPa | 0 mm | 2.24 m/s, 155° | - | - |
| 1777995063 | 18.33° C | 81% | 1013.1 hPa | 0 mm | 2.24 m/s, 155° | - | - |
| 1777995003 | 18.33° C | 81% | 1013.1 hPa | 0 mm | 2.68 m/s, 156° | - | - |
| 1777994943 | 18.33° C | 81% | 1013 hPa | 0 mm | 2.24 m/s, 151° | - | - |
| 1777994884 | 18.33° C | 81% | 1013.1 hPa | 0 mm | 2.24 m/s, 155° | - | - |
| 1777994823 | 18.33° C | 81% | 1013.1 hPa | 0 mm | 2.68 m/s, 154° | - | - |
| 1777994773 | 18.33° C | 81% | 1013.2 hPa | 0 mm | 2.24 m/s, 151° | - | - |
| 1777994703 | 18.89° C | 82% | 1013.1 hPa | 0 mm | 2.24 m/s, 154° | - | - |
| 1777994643 | 18.89° C | 82% | 1013.1 hPa | 0 mm | 2.68 m/s, 153° | - | - |
| 1777994583 | 18.89° C | 82% | 1013.2 hPa | 0 mm | 3.13 m/s, 160° | - | - |
| 1777994523 | 18.33° C | 82% | 1013.1 hPa | 0 mm | 3.13 m/s, 167° | - | - |
| 1777994463 | 18.33° C | 81% | 1013.2 hPa | 0 mm | 3.13 m/s, 172° | - | - |
| 1777994403 | 18.33° C | 81% | 1013.2 hPa | 0 mm | 3.13 m/s, 169° | - | - |
| 1777994343 | 18.33° C | 82% | 1013.2 hPa | 0 mm | 3.13 m/s, 168° | - | - |
| 1777994283 | 18.33° C | 81% | 1012.9 hPa | 0 mm | 3.13 m/s, 164° | - | - |
| 1777994223 | 18.89° C | 82% | 1013.2 hPa | 0 mm | 3.13 m/s, 165° | - | - |
| 1777994163 | 18.89° C | 82% | 1013 hPa | 0 mm | 3.13 m/s, 170° | - | - |
| 1777994103 | 18.33° C | 82% | 1013.2 hPa | 0 mm | 3.13 m/s, 170° | - | - |
| 1777994043 | 18.33° C | 82% | 1013.1 hPa | 0 mm | 3.13 m/s, 175° | - | - |
| 1777993983 | 18.33° C | 81% | 1013.1 hPa | 0 mm | 3.13 m/s, 163° | - | - |
| 1777993923 | 18.33° C | 82% | 1013.3 hPa | 0 mm | 3.13 m/s, 161° | - | - |
| 1777993863 | 18.33° C | 81% | 1013.3 hPa | 0 mm | 3.13 m/s, 162° | - | - |
| 1777993803 | 18.33° C | 81% | 1013.1 hPa | 0 mm | 3.13 m/s, 166° | - | - |
* Rain latest hour (hover to see other rain measurements)
** Current wind speed in m/s (hover to see current wind gust speed)